Weather History for Missoula, MT

Change the Weather History Date:

Saturday, February 23, 2013

  Actual Average Record
Temperature  
Mean Temperature 34 °F 32 °F  
Max Temperature 39 °F 41 °F 59 °F (1981)
Min Temperature 28 °F 22 °F -9 °F (1894)
Degree Days  
Heating Degree Days 31 33  
Month to date heating degree days 728 818  
Since 1 July heating degree days 4835 5207  
Cooling Degree Days 0 0  
Month to date cooling degree days 0 0  
Year to date cooling degree days 0 0  
Moisture  
Dew Point 23 °F    
Average Humidity 68    
Maximum Humidity 89    
Minimum Humidity 47    
Precipitation  
Precipitation 0.01 in 0.03 in 0.39 in (1999)
Month to date precipitation 0.29 0.57  
Year to date precipitation 1.44 1.42  
Snow  
Snow 0.10 in - - ()
Month to date snowfall 3.2  
Year to date snowfall 14.6  
Since 1 July snowfall 35.7  
Snow Depth 0.00 in    
Sea Level Pressure  
Sea Level Pressure 29.90 in    
Wind  
Wind Speed 10 mph (WNW)    
Max Wind Speed 25 mph    
Max Gust Speed 30 mph    
Visibility 9 miles    
Events Rain , Snow    
T = Trace of Precipitation, MM = Missing Value Source: NWS Daily Summary

Daily Weather History Graph

Daily Weather History Graph

Search for Another Location

Airport:

Trip Planner

Search our weather history database for the weather conditions in past years. The results will help you decide how hot, cold, wet, or windy it might be!

Date:

Astronomy

Feb. 23, 2013 Rise Set
Actual Time 7:26 AM MST 6:13 PM MST
Civil Twilight 6:55 AM MST 6:44 PM MST
Nautical Twilight 6:20 AM MST 7:19 PM MST
Astronomical Twilight 5:45 AM MST 7:54 PM MST
Moon 4:24 PM MST (2/23) 5:56 AM MST (2/23)
Length of Visible Light 11h 48m
Length of Day
10h 47m
Waxing Gibbous, 95% of the Moon is Illuminated
Feb 23
Waxing Gibbous
Feb 25
Full
Mar 4
Last Quarter
Mar 11
New
Mar 19
First Quarter

Hourly Weather History & Observations

Time (MST) Temp. Windchill Dew Point Humidity Pressure Visibility Wind Dir Wind Speed Gust Speed Precip Events Conditions
12:53 AM 37.9 °F 32.7 °F 30.0 °F 73% 29.68 in 10.0 mi West 6.9 mph - N/A   Overcast
1:06 AM 35.6 °F 27.1 °F 30.2 °F 81% 29.65 in 9.0 mi West 12.7 mph - 0.01 in Rain Light Rain
1:31 AM 33.8 °F 28.6 °F 30.2 °F 87% 29.65 in 9.0 mi WSW 5.8 mph - 0.01 in Snow Light Snow
1:53 AM 34.0 °F 31.0 °F 30.9 °F 89% 29.70 in 10.0 mi South 3.5 mph - 0.01 in   Overcast
2:53 AM 34.0 °F 24.2 °F 28.9 °F 82% 29.72 in 10.0 mi WSW 15.0 mph - N/A   Overcast
3:04 AM 33.8 °F 22.8 °F 28.4 °F 81% 29.68 in 2.0 mi WNW 18.4 mph 29.9 mph 0.00 in Snow Light Snow
3:07 AM 33.8 °F 24.8 °F 30.2 °F 87% 29.67 in 1.2 mi NW 12.7 mph 29.9 mph 0.00 in Snow Light Snow
3:14 AM 33.8 °F 27.7 °F 30.2 °F 87% 29.68 in 2.0 mi NW 6.9 mph - 0.00 in Snow Light Snow
3:21 AM 32.0 °F 27.5 °F 30.2 °F 93% 29.67 in 9.0 mi NNW 4.6 mph - 0.00 in   Overcast
3:53 AM 32.0 °F 28.7 °F 28.9 °F 88% 29.75 in 10.0 mi North 3.5 mph - 0.00 in   Scattered Clouds
4:53 AM 34.0 °F 25.0 °F 21.9 °F 61% 29.74 in 10.0 mi WSW 12.7 mph - N/A   Mostly Cloudy
5:53 AM 30.9 °F 26.2 °F 25.0 °F 79% 29.80 in 10.0 mi NW 4.6 mph - N/A   Mostly Cloudy
6:53 AM 32.0 °F 22.1 °F 19.0 °F 59% 29.82 in 10.0 mi WSW 13.8 mph 19.6 mph N/A   Mostly Cloudy
7:53 AM 32.0 °F 21.2 °F 19.0 °F 59% 29.84 in 10.0 mi WSW 16.1 mph 20.7 mph N/A   Overcast
8:53 AM 30.9 °F 25.2 °F 17.1 °F 57% 29.87 in 10.0 mi SW 5.8 mph - N/A   Partly Cloudy
9:53 AM 33.1 °F - 16.0 °F 50% 29.91 in 10.0 mi Calm Calm - N/A   Overcast
10:53 AM 35.1 °F 26.4 °F 17.1 °F 48% 29.91 in 10.0 mi West 12.7 mph - N/A   Mostly Cloudy
11:53 AM 34.0 °F 26.0 °F 18.0 °F 52% 29.93 in 10.0 mi WNW 10.4 mph - N/A   Overcast
12:53 PM 35.1 °F 24.8 °F 19.0 °F 52% 29.94 in 10.0 mi NW 17.3 mph 21.9 mph N/A   Overcast
1:53 PM 34.0 °F 24.6 °F 21.0 °F 59% 29.96 in 10.0 mi NW 13.8 mph 20.7 mph 0.00 in   Overcast
2:53 PM 35.1 °F 27.4 °F 21.9 °F 59% 29.97 in 10.0 mi NNW 10.4 mph - 0.00 in   Overcast
3:53 PM 35.1 °F 24.1 °F 21.0 °F 57% 30.00 in 10.0 mi WNW 19.6 mph - N/A   Scattered Clouds
4:53 PM 35.1 °F 25.5 °F 19.0 °F 52% 30.03 in 10.0 mi WNW 15.0 mph 24.2 mph N/A   Mostly Cloudy
5:53 PM 35.1 °F 26.4 °F 18.0 °F 50% 30.07 in 10.0 mi WNW 12.7 mph - N/A   Overcast
6:53 PM 34.0 °F 25.0 °F 18.0 °F 52% 30.11 in 10.0 mi NW 12.7 mph - N/A   Overcast
7:53 PM 30.9 °F 23.5 °F 21.0 °F 67% 30.14 in 10.0 mi West 8.1 mph - N/A   Mostly Cloudy
8:53 PM 30.0 °F 26.5 °F 19.9 °F 66% 30.18 in 10.0 mi North 3.5 mph - N/A   Overcast
9:53 PM 30.9 °F 27.5 °F 19.9 °F 64% 30.19 in 10.0 mi North 3.5 mph - N/A   Overcast
10:53 PM 28.9 °F 23.9 °F 19.0 °F 67% 30.21 in 10.0 mi North 4.6 mph - N/A   Mostly Cloudy
11:53 PM 28.9 °F 25.2 °F 21.9 °F 75% 30.23 in 10.0 mi SW 3.5 mph - N/A   Overcast